Rome, NY

5:30 PM EDT on April 25, 2018 (GMT -0400)
Griffiss

Weather History for KRME - January, 2014

Change the Weather History Date:

Monday, January 27, 2014

  Actual Average Record
Temperature  
Mean Temperature 22 °F -  
Max Temperature 37 °F 28 °F 45 °F (2018)
Min Temperature 7 °F 8 °F -15 °F (1982)
Degree Days  
Heating Degree Days 42    
Moisture  
Dew Point 11 °F    
Average Humidity 64    
Maximum Humidity 89    
Minimum Humidity 47    
Precipitation  
Precipitation 0.00 in - - ()
Sea Level Pressure  
Sea Level Pressure 29.70 in    
Wind  
Wind Speed 17 mph (WSW)    
Max Wind Speed 36 mph    
Max Gust Speed 48 mph    
Visibility 6 miles    
Events Fog , Snow    
Averages and records for this station are not official NWS values.
T = Trace of Precipitation, MM = Missing Value Source: NWS Daily Summary

Daily Weather History Graph

Daily Weather History Graph

Search for Another Location

Airport or City:

Astronomy

Jan. 27, 2014 Rise Set
Actual Time 7:22 AM EST 5:07 PM EST
Civil Twilight 6:51 AM EST 5:37 PM EST
Nautical Twilight 6:17 AM EST 6:12 PM EST
Astronomical Twilight 5:43 AM EST 6:45 PM EST
Moon 4:02 AM EST (1/27) 1:49 PM EST (1/27)
Length of Visible Light 10h 46m
Length of Day
9h 44m
Waning Crescent, 15% of the Moon is Illuminated
Jan 27
Waning Crescent
Jan 30
New
Feb 6
First Quarter
Feb 14
Full
Feb 22
Last Quarter

Hourly Weather History & Observations

Time (EST) Temp. Windchill Dew Point Humidity Pressure Visibility Wind Dir Wind Speed Gust Speed Precip Events Conditions
12:53 AM 24.1 °F 12.0 °F 14.0 °F 65% 29.59 in 10.0 mi SSE 13.8 mph - 0.00 in   Overcast
1:53 AM 26.1 °F 15.6 °F 14.0 °F 60% 29.55 in 10.0 mi SE 11.5 mph - N/A   Overcast
2:53 AM 26.1 °F 16.2 °F 14.0 °F 60% 29.52 in 10.0 mi East 10.4 mph - N/A   Overcast
3:53 AM 26.1 °F 16.2 °F 15.1 °F 63% 29.48 in 10.0 mi ESE 10.4 mph - N/A   Mostly Cloudy
4:53 AM 28.0 °F 17.5 °F 16.0 °F 61% 29.42 in 10.0 mi ESE 12.7 mph - N/A   Overcast
5:53 AM 28.9 °F 19.2 °F 16.0 °F 58% 29.37 in 10.0 mi SE 11.5 mph - N/A   Overcast
6:53 AM 37.0 °F 28.5 °F 19.9 °F 50% 29.37 in 10.0 mi SSW 13.8 mph 25.3 mph N/A   Overcast
7:12 AM 35.1 °F 21.8 °F 24.1 °F 64% 29.43 in 1.8 mi West 29.9 mph 46.0 mph 0.00 in Snow Light Snow
7:16 AM 30.9 °F 16.7 °F 27.0 °F 85% 29.43 in 0.8 mi West 27.6 mph 46.0 mph 0.00 in Snow Light Snow
7:27 AM 30.0 °F 16.9 °F 27.0 °F 88% 29.44 in 0.8 mi West 21.9 mph 35.7 mph 0.00 in Snow Light Snow
7:35 AM 30.0 °F 17.9 °F 26.1 °F 85% 29.46 in 1.5 mi West 18.4 mph 29.9 mph 0.00 in Snow Light Snow
7:42 AM 30.0 °F 19.1 °F 25.0 °F 82% 29.46 in 3.0 mi West 15.0 mph 25.3 mph 0.00 in Snow Light Snow
7:51 AM 30.2 °F 18.1 °F 24.8 °F 80% 29.47 in 1.8 mi West 18.4 mph 28.8 mph 0.00 in Snow Light Snow
7:53 AM 30.0 °F 17.5 °F 25.0 °F 82% 29.49 in 1.2 mi WSW 19.6 mph 28.8 mph 0.00 in Snow Light Snow
8:01 AM 28.9 °F 14.8 °F 26.1 °F 89% 29.49 in 0.5 mi West 24.2 mph 31.1 mph 0.00 in Fog , Snow Snow
8:49 AM 24.8 °F 6.6 °F 21.2 °F 86% 29.58 in 0.2 mi West 35.7 mph 42.6 mph 0.00 in Fog , Snow Heavy Snow
8:53 AM 24.1 °F 6.4 °F 19.9 °F 84% 29.60 in 0.2 mi WNW 32.2 mph 42.6 mph 0.00 in Fog , Snow Heavy Snow
9:04 AM 23.0 °F 8.0 °F 18.0 °F 81% 29.60 in 0.5 mi West 20.7 mph 36.8 mph 0.00 in Snow Snow
9:45 AM 21.0 °F 3.9 °F 14.0 °F 74% 29.67 in 0.5 mi WNW 25.3 mph 41.4 mph 0.00 in Snow Snow
9:53 AM 21.0 °F 4.3 °F 12.0 °F 68% 29.71 in 1.2 mi West 24.2 mph 33.4 mph 0.00 in Snow Light Snow
10:16 AM 21.0 °F 6.6 °F 7.0 °F 55% 29.71 in 3.0 mi West 17.3 mph 39.1 mph 0.00 in   Overcast
10:27 AM 19.9 °F 2.5 °F 6.1 °F 55% 29.72 in 1.8 mi West 25.3 mph 48.3 mph 0.00 in   Overcast
10:38 AM 19.9 °F 3.5 °F 6.1 °F 55% 29.74 in 2.5 mi West 21.9 mph 33.4 mph 0.00 in   Overcast
10:53 AM 19.0 °F 0.6 °F 6.1 °F 57% 29.77 in 8.0 mi West 27.6 mph 42.6 mph 0.00 in   Mostly Cloudy
11:53 AM 19.9 °F 4.8 °F 5.0 °F 52% 29.79 in 10.0 mi WSW 18.4 mph 29.9 mph 0.00 in   Mostly Cloudy
12:53 PM 19.0 °F 2.4 °F 3.0 °F 50% 29.81 in 8.0 mi West 21.9 mph 33.4 mph 0.00 in   Clear
1:53 PM 19.0 °F 3.6 °F 3.9 °F 52% 29.82 in 9.0 mi West 18.4 mph 29.9 mph 0.00 in   Clear
2:53 PM 19.0 °F 2.4 °F 5.0 °F 54% 29.86 in 9.0 mi West 21.9 mph 29.9 mph 0.00 in   Overcast
3:43 PM 17.1 °F 1.0 °F 6.1 °F 62% 29.86 in 2.5 mi West 18.4 mph 31.1 mph 0.00 in Snow Light Snow
3:50 PM 17.6 °F 3.2 °F 5.0 °F 58% 29.87 in 4.0 mi West 15.0 mph 26.5 mph 0.00 in Snow Light Snow
3:53 PM 17.1 °F 1.5 °F 5.0 °F 59% 29.89 in 5.0 mi WSW 17.3 mph 26.5 mph 0.00 in Snow Light Snow
4:53 PM 17.1 °F 2.0 °F -0.0 °F 47% 29.92 in 10.0 mi West 16.1 mph 31.1 mph 0.00 in   Overcast
5:53 PM 14.0 °F -2.0 °F 1.0 °F 56% 29.96 in 9.0 mi West 16.1 mph 25.3 mph N/A   Mostly Cloudy
6:53 PM 12.9 °F -2.2 °F -2.9 °F 49% 29.99 in 10.0 mi West 13.8 mph - N/A   Mostly Cloudy
7:53 PM 12.0 °F -3.4 °F -2.0 °F 53% 30.03 in 10.0 mi West 13.8 mph - N/A   Overcast
8:53 PM 10.0 °F -6.5 °F -2.9 °F 56% 30.05 in 10.0 mi West 15.0 mph - N/A   Clear
9:53 PM 10.0 °F -5.9 °F -4.0 °F 53% 30.07 in 10.0 mi West 13.8 mph - N/A   Overcast
10:53 PM 8.1 °F -9.0 °F -5.1 °F 55% 30.08 in 10.0 mi WSW 15.0 mph 21.9 mph N/A   Overcast
11:53 PM 7.0 °F -9.1 °F -8.0 °F 51% 30.09 in 10.0 mi West 12.7 mph - N/A   Partly Cloudy